ブルーイントン彗星

154P/Brewington (2003)

English version
Home page
Updated on May 10, 2003

---------------------------------------------------------------------

・ プロフィール

符号 154P/2002 Q4
検出日 2002年8月26日
発見光度 16.8等
発見者 F. Artigue, H. Cucurullo, G. Trancredi (BUSCA project)

・ 軌道要素

Epoch 2003 Feb. 10.0 TT = JDT 2452680.5
T 2003 Feb. 19.36898 TT                                 MPC
q   1.5903470            (2000.0)            P               Q
n   0.09246178     Peri.   48.00610     +0.84095704     -0.53401333
a   4.8435215      Node   343.64406     +0.35754982     +0.66950315
e   0.6716548      Incl.   18.05953     +0.40613962     +0.51632868
P  10.66

・ 星図

・ 光度変化

        m1 = 11.6 + 5 logΔ + 10.7 log r  [    ,-100]  (              〜2002年11月11日)
        m1 =  0.0 + 5 logΔ + 50   log r  [-100, 100]  (2002年11月11日〜2003年 5月30日)
        m1 = 11.6 + 5 logΔ + 10.7 log r  [ 100,    ]  (2003年 5月30日〜              )

        ※ 灰色の曲線は、m1 = 11.6 + 5 logΔ + 10.7 log r の光度曲線です。

---------------------------------------------------------------------

軌道要素はM.P.E.C. 2002-Q41に掲載されたものです。
星図は StellaNavigator Ver.2.0 for Windows (アストロアーツ 編著 / アスキー出版局刊) で作成したものです。
光度グラフはComet for Windowsで作成したものです。

---------------------------------------------------------------------

Copyright(C) Seiichi Yoshida (comet@aerith.net). All rights reserved.